EA8CHC Weather Reports


time (UTC)temp
F
wind
direction
speed
knots
gust
knots
rain 1hr
in
rain 24hr
in
rain mn
in
humidity
%
barometer
mb
20260507130705 70 235 7.0 13.0 0.00 0.00 0.00 55 1008.9
20260507130205 70 220 7.0 12.2 0.00 0.00 0.00 52 1008.8
20260507125204 70 221 7.0 12.2 0.00 0.00 0.00 52 1008.9
20260507124705 70 218 7.0 12.2 0.00 0.00 0.00 53 1008.9
20260507124205 70 183 7.0 12.2 0.00 0.00 0.00 55 1009.0
20260507123705 70 191 6.1 13.0 0.00 0.00 0.00 57 1009.0
20260507123205 70 223 7.0 13.0 0.00 0.00 0.00 55 1009.1
20260507122706 70 215 7.0 13.0 0.00 0.00 0.00 57 1009.2
20260507122205 69 212 7.0 17.4 0.00 0.00 0.00 58 1009.3
20260507121705 69 213 7.8 17.4 0.00 0.00 0.00 54 1009.3
20260507121205 70 211 7.0 17.4 0.00 0.00 0.00 55 1009.3
20260507120704 70 180 7.0 13.9 0.00 0.00 0.00 58 1009.3
20260507120205 69 215 7.8 15.6 0.00 0.00 0.00 57 1009.4
20260507115704 69 225 7.0 15.6 0.00 0.00 0.00 57 1009.4
20260507115204 70 197 7.8 13.9 0.00 0.00 0.00 57 1009.4
20260507114733 69 223 7.0 17.4 0.00 0.00 0.00 58 1009.4
20260507114204 70 238 7.0 17.4 0.00 0.00 0.00 59 1009.4
20260507113705 69 213 7.8 17.4 0.00 0.00 0.00 60 1009.4
20260507113205 69 200 7.0 13.0 0.00 0.00 0.00 60 1009.5
20260507112705 70 179 6.1 14.8 0.00 0.00 0.00 59 1009.5
20260507112205 69 213 7.0 14.8 0.00 0.00 0.00 59 1009.5
20260507111705 69 186 7.0 14.8 0.00 0.00 0.00 58 1009.5
20260507110205 68 265 6.1 13.0 0.00 0.00 0.00 61 1009.5
20260507105704 67 171 6.1 13.0 0.00 0.00 0.00 61 1009.6
20260507105205 68 232 6.1 13.0 0.00 0.00 0.00 60 1009.5
20260507104204 67 197 6.1 11.3 0.00 0.00 0.00 62 1009.6
20260507103705 68 176 4.3 10.4 0.00 0.00 0.00 61 1009.6
20260507103204 68 219 5.2 10.4 0.00 0.00 0.00 63 1009.6
20260507102704 67 148 5.2 11.3 0.00 0.00 0.00 66 1009.7
20260507102204 66 219 5.2 11.3 0.00 0.00 0.00 66 1009.8
20260507101704 66 242 5.2 11.3 0.00 0.00 0.00 65 1009.7
20260507101205 66 196 6.1 11.3 0.00 0.00 0.00 65 1009.7
20260507100705 67 196 5.2 11.3 0.00 0.00 0.00 64 1009.8
20260507100205 66 169 5.2 9.6 0.00 0.00 0.00 66 1009.7
20260507095705 65 152 5.2 10.4 0.00 0.00 0.00 67 1009.8
20260507095204 65 205 6.1 11.3 0.00 0.00 0.00 67 1009.9
20260507094704 66 157 6.1 11.3 0.00 0.00 0.00 66 1009.8
20260507094205 66 135 6.1 10.4 0.00 0.00 0.00 65 1010.0
20260507093205 65 185 6.1 11.3 0.00 0.00 0.00 68 1009.7
20260507092704 65 194 6.1 10.4 0.00 0.00 0.00 68 1009.7
20260507091220 64 165 6.1 11.3 0.00 0.00 0.00 70 1009.6
20260507090205 65 200 5.2 10.4 0.00 0.00 0.00 69 1009.6
20260507085705 65 161 6.1 11.3 0.00 0.00 0.00 69 1009.6
20260507085205 65 161 6.1 11.3 0.00 0.00 0.00 71 1009.6
20260507084705 65 205 7.0 14.8 0.00 0.00 0.00 71 1009.6
20260507084204 64 182 7.0 14.8 0.00 0.00 0.00 72 1009.6
20260507083704 63 171 6.1 14.8 0.00 0.00 0.00 73 1009.6
20260507083205 63 160 5.2 10.4 0.00 0.00 0.00 74 1009.6
20260507082705 63 190 5.2 9.6 0.00 0.00 0.00 75 1009.6
20260507082205 63 144 5.2 9.6 0.00 0.00 0.00 75 1009.6
20260507081704 63 203 5.2 9.6 0.00 0.00 0.00 74 1009.6
20260507081205 63 119 5.2 10.4 0.00 0.00 0.00 76 1009.6
20260507080705 62 147 5.2 12.2 0.00 0.00 0.00 76 1009.5
20260507080205 62 167 6.1 12.2 0.00 0.00 0.00 76 1009.4
20260507075704 62 126 6.1 12.2 0.00 0.00 0.00 76 1009.4
20260507075204 62 101 6.1 12.2 0.00 0.00 0.00 77 1009.3
20260507074704 61 99 6.1 11.3 0.00 0.00 0.00 77 1009.3
20260507074204 60 139 6.1 11.3 0.00 0.00 0.00 78 1009.3
20260507073704 60 147 5.2 9.6 0.00 0.00 0.00 79 1009.1
20260507073205 60 146 5.2 9.6 0.00 0.00 0.00 79 1009.0
20260507072705 59 146 4.3 7.8 0.00 0.00 0.00 80 1009.1
20260507072204 59 115 4.3 7.0 0.00 0.00 0.00 81 1009.0
20260507071204 58 161 3.5 7.8 0.00 0.00 0.00 81 1008.9
20260507070205 58 127 5.2 7.8 0.00 0.00 0.00 81 1008.7
20260507065728 58 126 4.3 7.8 0.00 0.00 0.00 81 1008.8
20260507065204 58 92 4.3 7.8 0.00 0.00 0.00 81 1008.7
20260507064204 57 128 3.5 7.0 0.00 0.00 0.00 82 1008.5
20260507063204 56 88 4.3 7.0 0.00 0.00 0.00 82 1008.5
20260507062705 56 86 3.5 6.1 0.00 0.00 0.00 82 1008.5
20260507062204 56 107 3.5 6.1 0.00 0.00 0.00 83 1008.5
20260507061205 56 105 3.5 5.2 0.00 0.00 0.00 83 1008.4
20260507060704 56 90 3.5 5.2 0.00 0.00 0.00 83 1008.4
20260507060205 56 109 2.6 4.3 0.00 0.00 0.00 83 1008.4
20260507055705 55 98 1.7 4.3 0.00 0.00 0.00 84 1008.3
20260507055205 55 80 1.7 4.3 0.00 0.00 0.00 84 1008.3
20260507054705 55 96 1.7 4.3 0.00 0.00 0.00 84 1008.2
20260507054205 55 91 1.7 4.3 0.00 0.00 0.00 84 1008.2
20260507053704 55 91 2.6 4.3 0.00 0.00 0.00 84 1008.2
20260507053204 55 103 1.7 4.3 0.00 0.00 0.00 84 1008.1
20260507052705 55 224 1.7 3.5 0.00 0.00 0.00 84 1008.2
20260507052205 55 53 0.9 3.5 0.00 0.00 0.00 84 1008.2
20260507051705 55 121 0.9 1.7 0.00 0.00 0.00 84 1008.2
20260507051205 55 121 0.0 1.7 0.00 0.00 0.00 84 1008.3
20260507050705 55 121 0.0 1.7 0.00 0.00 0.00 84 1008.3
20260507050205 55 121 0.0 1.7 0.00 0.00 0.00 83 1008.3
20260507045705 55 121 0.0 1.7 0.00 0.00 0.00 83 1008.3
20260507045205 55 121 0.0 3.5 0.00 0.00 0.00 83 1008.3
20260507044705 55 121 0.9 4.3 0.00 0.00 0.00 83 1008.1
20260507043705 55 130 2.6 5.2 0.00 0.00 0.00 83 1008.1
20260507043205 55 135 2.6 5.2 0.00 0.00 0.00 82 1007.9
20260507041705 55 157 3.5 6.1 0.00 0.00 0.00 82 1007.9
20260507041204 55 147 2.6 5.2 0.00 0.00 0.00 82 1007.8
20260507040705 55 132 2.6 5.2 0.00 0.00 0.00 82 1007.8
20260507040205 55 144 2.6 5.2 0.00 0.00 0.00 82 1007.7
20260507035705 55 139 2.6 4.3 0.00 0.00 0.00 82 1007.7
20260507035205 55 128 2.6 4.3 0.00 0.00 0.00 82 1007.7
20260507034204 55 123 1.7 4.3 0.00 0.00 0.00 82 1007.7
20260507033704 54 112 2.6 4.3 0.00 0.00 0.00 82 1007.8
20260507033205 55 105 2.6 3.5 0.00 0.00 0.00 81 1007.6
20260507032706 55 105 1.7 3.5 0.00 0.00 0.00 81 1007.6
20260507032204 55 105 1.7 3.5 0.00 0.00 0.00 81 1007.8
20260507031705 55 113 1.7 3.5 0.00 0.00 0.00 80 1007.8
20260507031205 55 97 1.7 3.5 0.00 0.00 0.00 80 1007.8
20260507030704 55 93 1.7 1.7 0.00 0.00 0.00 80 1007.8
20260507030205 55 93 0.9 1.7 0.00 0.00 0.00 80 1007.7
20260507025704 55 93 0.9 3.5 0.00 0.00 0.00 80 1007.7
20260507025204 55 93 0.9 3.5 0.00 0.00 0.00 79 1007.7
20260507024204 56 93 0.9 4.3 0.00 0.00 0.00 79 1007.6
20260507023705 56 98 0.9 4.3 0.00 0.00 0.00 78 1007.6
20260507023205 56 139 0.9 4.3 0.00 0.00 0.00 79 1007.6
20260507022704 56 146 1.7 4.3 0.00 0.00 0.00 79 1007.6
20260507022207 56 170 1.7 3.5 0.00 0.00 0.00 79 1007.6
20260507021721 56 145 1.7 4.3 0.00 0.00 0.00 79 1007.6
20260507021205 56 147 1.7 4.3 0.00 0.00 0.00 79 1007.7
20260507020205 56 161 1.7 5.2 0.00 0.00 0.00 79 1007.7
20260507015705 56 165 0.9 5.2 0.00 0.00 0.00 80 1007.7
20260507014705 56 170 2.6 7.0 0.00 0.00 0.00 79 1007.8
20260507013704 56 178 3.5 7.0 0.00 0.00 0.00 79 1007.9
20260507012705 56 168 2.6 6.1 0.00 0.00 0.00 79 1007.9
20260507012204 56 167 2.6 5.2 0.00 0.00 0.00 80 1007.9
20260507011705 56 168 2.6 5.2 0.00 0.00 0.00 80 1008.0
20260507011205 55 173 2.6 3.5 0.00 0.00 0.00 79 1008.0
20260507010705 56 182 1.7 4.3 0.00 0.00 0.00 79 1008.0
20260507010205 56 184 1.7 4.3 0.00 0.00 0.00 79 1008.0
20260507005705 55 195 1.7 2.6 0.00 0.00 0.00 79 1008.0
20260507005204 55 190 0.9 3.5 0.00 0.00 0.00 80 1008.2
20260507004705 55 217 0.9 3.5 0.00 0.00 0.00 79 1008.2
20260507003705 55 202 1.7 5.2 0.00 0.00 0.00 79 1008.1
20260507003204 55 192 2.6 5.2 0.00 0.00 0.00 79 1008.2
20260507002705 56 219 2.6 5.2 0.00 0.00 0.00 79 1008.3
20260507002205 56 194 2.6 6.1 0.00 0.00 0.00 79 1008.3
20260507001205 56 182 2.6 6.1 0.00 0.00 0.00 79 1008.3
20260507000704 56 191 2.6 6.1 0.00 0.00 0.00 79 1008.4
20260507000205 56 197 3.5 6.1 0.00 0.00 0.00 79 1008.5
20260506235705 56 201 3.5 5.2 0.00 0.00 0.00 79 1008.5
20260506235204 56 192 3.5 4.3 0.00 0.00 0.00 79 1008.5
20260506234705 56 178 2.6 3.5 0.00 0.00 0.00 79 1008.5
20260506234205 56 190 2.6 3.5 0.00 0.00 0.00 80 1008.5
20260506233705 56 185 2.6 3.5 0.00 0.00 0.00 80 1008.5
20260506233205 56 192 2.6 4.3 0.00 0.00 0.00 80 1008.5
20260506232705 56 210 2.6 4.3 0.00 0.00 0.00 80 1008.5
20260506232204 56 210 2.6 4.3 0.00 0.00 0.00 79 1008.5
20260506231704 56 205 2.6 5.2 0.00 0.00 0.00 79 1008.7
20260506231204 56 202 3.5 5.2 0.00 0.00 0.00 78 1008.5
20260506230704 56 195 2.6 5.2 0.00 0.00 0.00 78 1008.6
20260506225704 56 189 3.5 4.3 0.00 0.00 0.00 77 1008.7
20260506225204 56 191 3.5 4.3 0.00 0.00 0.00 76 1008.7
20260506224705 56 189 3.5 4.3 0.00 0.00 0.00 74 1008.7
20260506224204 56 184 3.5 4.3 0.00 0.00 0.00 74 1008.8
20260506223705 56 190 2.6 4.3 0.00 0.00 0.00 73 1008.8
20260506223205 56 186 2.6 4.3 0.00 0.00 0.00 73 1008.8
20260506222206 56 193 3.5 4.3 0.00 0.00 0.00 71 1008.7
20260506221705 56 195 3.5 4.3 0.00 0.00 0.00 70 1008.6
20260506221204 57 212 3.5 4.3 0.00 0.00 0.00 70 1008.6
20260506220705 57 196 3.5 4.3 0.00 0.00 0.00 69 1008.5
20260506220205 57 193 2.6 4.3 0.00 0.00 0.00 68 1008.5
20260506214705 59 240 2.6 4.3 0.00 0.00 0.00 65 1008.6
20260506214205 59 245 2.6 4.3 0.00 0.00 0.00 64 1008.6
20260506213205 60 270 2.6 6.1 0.00 0.00 0.00 63 1008.5
20260506212704 60 279 3.5 6.1 0.00 0.00 0.00 63 1008.4
20260506212205 60 275 3.5 6.1 0.00 0.00 0.00 63 1008.5
20260506211705 60 288 3.5 5.2 0.00 0.00 0.00 63 1008.3
20260506210705 60 283 3.5 6.1 0.00 0.00 0.00 62 1008.3
20260506210205 60 278 3.5 6.1 0.00 0.00 0.00 62 1008.4
20260506205204 60 273 3.5 6.1 0.00 0.00 0.00 62 1008.3
20260506204704 60 274 3.5 6.1 0.00 0.00 0.00 62 1008.3
20260506204205 60 270 3.5 5.2 0.00 0.00 0.00 61 1008.2
20260506203705 60 275 3.5 5.2 0.00 0.00 0.00 61 1008.2
20260506202706 61 268 3.5 6.1 0.00 0.00 0.00 61 1008.2
20260506202204 61 263 4.3 6.1 0.00 0.00 0.00 60 1008.1
20260506201705 61 266 4.3 6.1 0.00 0.00 0.00 59 1008.1
20260506201205 61 258 3.5 5.2 0.00 0.00 0.00 59 1008.2
20260506200705 62 265 4.3 5.2 0.00 0.00 0.00 58 1008.3
20260506200205 62 263 4.3 6.1 0.00 0.00 0.00 58 1008.2
20260506195204 63 274 4.3 7.0 0.00 0.00 0.00 57 1008.1
20260506194704 63 247 4.3 7.0 0.00 0.00 0.00 56 1007.8
20260506194222 64 271 4.3 7.0 0.00 0.00 0.00 55 1007.8
20260506193705 64 261 4.3 8.7 0.00 0.00 0.00 54 1007.7
20260506192705 65 254 5.2 8.7 0.00 0.00 0.00 52 1007.7
20260506192205 65 257 4.3 7.8 0.00 0.00 0.00 52 1007.7
20260506191204 66 233 4.3 9.6 0.00 0.00 0.00 51 1007.7
20260506190705 66 282 5.2 9.6 0.00 0.00 0.00 51 1007.6
20260506190205 67 178 5.2 9.6 0.00 0.00 0.00 50 1007.6
20260506185704 67 211 5.2 10.4 0.00 0.00 0.00 50 1007.6
20260506185204 67 256 5.2 10.4 0.00 0.00 0.00 50 1007.6
20260506184705 68 281 6.1 11.3 0.00 0.00 0.00 50 1007.4
20260506184205 68 268 6.1 11.3 0.00 0.00 0.00 49 1007.3
20260506183705 68 267 6.1 11.3 0.00 0.00 0.00 49 1007.3
20260506183205 69 257 6.1 11.3 0.00 0.00 0.00 47 1007.5
20260506182705 69 266 6.1 12.2 0.00 0.00 0.00 46 1007.6
20260506182204 69 230 7.0 12.2 0.00 0.00 0.00 46 1007.6
20260506181704 70 248 7.8 13.9 0.00 0.00 0.00 46 1007.6
20260506181204 70 225 7.0 13.9 0.00 0.00 0.00 45 1007.4
20260506180705 71 243 7.0 13.9 0.00 0.00 0.00 45 1007.4
20260506180205 71 252 6.1 12.2 0.00 0.00 0.00 44 1007.5
20260506175705 71 265 6.1 12.2 0.00 0.00 0.00 44 1007.5
20260506175205 71 290 7.0 12.2 0.00 0.00 0.00 43 1007.6
20260506174704 71 235 7.0 12.2 0.00 0.00 0.00 42 1007.5
20260506174205 72 256 7.0 12.2 0.00 0.00 0.00 42 1007.5
20260506173705 72 251 7.0 12.2 0.00 0.00 0.00 40 1007.4
20260506173205 72 250 7.0 12.2 0.00 0.00 0.00 41 1007.4
20260506172705 72 240 6.1 12.2 0.00 0.00 0.00 40 1007.4
20260506172205 73 206 7.0 12.2 0.00 0.00 0.00 40 1007.5
20260506171705 73 254 7.0 13.9 0.00 0.00 0.00 39 1007.6
20260506171204 73 225 7.0 13.9 0.00 0.00 0.00 39 1007.7
20260506170704 73 269 7.0 14.8 0.00 0.00 0.00 39 1007.6
20260506170205 73 223 7.8 14.8 0.00 0.00 0.00 39 1007.6
20260506165205 73 227 8.7 13.9 0.00 0.00 0.00 38 1007.6
20260506164705 73 218 8.7 13.9 0.00 0.00 0.00 38 1007.6
20260506164204 73 229 7.8 15.6 0.00 0.00 0.00 38 1007.6
20260506163704 74 228 7.8 15.6 0.00 0.00 0.00 38 1007.7
20260506163205 74 240 8.7 15.6 0.00 0.00 0.00 38 1007.6
20260506162705 74 200 8.7 14.8 0.00 0.00 0.00 38 1007.8
20260506162223 75 229 7.8 13.9 0.00 0.00 0.00 38 1007.8
20260506161705 75 240 7.0 13.9 0.00 0.00 0.00 38 1007.8
20260506161209 76 247 7.8 13.9 0.00 0.00 0.00 38 1007.7
20260506160705 76 276 7.0 13.9 0.00 0.00 0.00 37 1007.6
20260506160222 76 167 5.2 13.0 0.00 0.00 0.00 37 1007.7
20260506155723 76 155 4.3 9.6 0.00 0.00 0.00 36 1007.8
20260506155204 76 210 4.3 14.8 0.00 0.00 0.00 35 1007.9
20260506154705 76 265 4.3 14.8 0.00 0.00 0.00 33 1007.9
20260506153704 75 167 5.2 10.4 0.00 0.00 0.00 33 1007.9
20260506152705 76 291 2.6 6.1 0.00 0.00 0.00 31 1008.0
20260506152205 76 208 1.7 5.2 0.00 0.00 0.00 30 1008.1
20260506151705 76 62 1.7 5.2 0.00 0.00 0.00 29 1008.2
20260506151205 76 290 2.6 6.1 0.00 0.00 0.00 30 1008.3
20260506150706 76 355 2.6 7.8 0.00 0.00 0.00 28 1008.3
20260506150205 76 331 2.6 7.8 0.00 0.00 0.00 31 1008.4
20260506145204 75 99 3.5 7.8 0.00 0.00 0.00 29 1008.4
20260506144705 75 210 4.3 8.7 0.00 0.00 0.00 32 1008.5
20260506144205 75 248 4.3 8.7 0.00 0.00 0.00 32 1008.7
20260506143704 75 250 4.3 8.7 0.00 0.00 0.00 31 1008.7
20260506143204 75 270 2.6 8.7 0.00 0.00 0.00 31 1008.7
20260506142705 75 61 2.6 8.7 0.00 0.00 0.00 30 1008.7
20260506142205 75 227 4.3 8.7 0.00 0.00 0.00 30 1008.9
20260506141705 75 269 4.3 7.0 0.00 0.00 0.00 31 1009.1
20260506141205 75 260 2.6 7.0 0.00 0.00 0.00 32 1009.2
20260506140704 74 355 2.6 7.8 0.00 0.00 0.00 32 1009.1
20260506140205 74 330 4.3 9.6 0.00 0.00 0.00 32 1009.2
20260506135704 74 277 5.2 9.6 0.00 0.00 0.00 33 1009.2
20260506135204 74 264 3.5 8.7 0.00 0.00 0.00 35 1009.2
20260506134705 74 184 3.5 8.7 0.00 0.00 0.00 35 1009.2
20260506134204 74 326 4.3 8.7 0.00 0.00 0.00 33 1009.3
20260506133705 74 262 3.5 6.1 0.00 0.00 0.00 34 1009.2
20260506133206 74 288 1.7 9.6 0.00 0.00 0.00 33 1009.3
20260506132705 74 322 3.5 10.4 0.00 0.00 0.00 34 1009.4
20260506132204 73 195 5.2 10.4 0.00 0.00 0.00 35 1009.5
20260506131705 74 225 4.3 10.4 0.00 0.00 0.00 34 1009.6
20260506131205 73 217 2.6 8.7 0.00 0.00 0.00 37 1009.6